Home > Weather > Amberg > Past weeks

Flag for Germany Weather for the Past 2 Weeks in Amberg, Bavaria, Germany

Now
41 °F

Light rain. Passing clouds.


Feels Like: 37 °F
Forecast: 33 / 42 °F
Wind: 6 mph from Northwest

Location: Hohenfels

Current Time: Feb 14, 2016 at 7:02:07 PM

Latest Report: Feb 14, 2016 at 5:58 PM


Visibility: N/A

Pressure: 29.34 "Hg

Humidity: 93%

Dew point: 39 °F

Location of AmbergLocation

Historic Weather in Amberg — Graph

°F

Amberg Temperature Yesterday

Maximum temperature yesterday: 37 °F (at 10:58 PM)
Minimum temperature yesterday: 25 °F (at 1:58 AM)
Average temperature yesterday: 32 °F

High & Low Weather Summary for the Past Weeks

 TemperatureHumidityPressure
High54 °F (Feb 8, 2:58 PM)100% (Jan 31, 9:58 AM)30.43 "Hg (Jan 31, 9:58 AM)
Low25 °F (Feb 13, 1:58 AM)47% (Feb 8, 1:58 PM)29.15 "Hg (Feb 14, 2:04 AM)
Average39 °F87%29.82 "Hg
* Reported Jan 30 5:58 PM — Feb 14 5:58 PM, Amberg, Weather by CustomWeather, © 2016

Note: Actual official high and low records may vary slightly from our data, if they occured in-between our weather recording intervals... More about our weather records

Advertising

Amberg Weather History for the Previous 24 Hours

 ConditionsComfort  
Time TempWeatherWind HumidityBarometerVisibility
5:58 PM
Sun, Feb 14
41 °FLight rain. Passing clouds.6 mph93%29.34 "HgN/A
5:04 PM43 °FLight rain. Partly sunny.5 mph81%29.28 "HgN/A
3:58 PM45 °FLight rain. Overcast.6 mph76%29.27 "HgN/A
2:58 PM46 °FMostly cloudy.2 mph66%29.23 "HgN/A
1:58 PM48 °FScattered clouds.3 mph62%29.23 "HgN/A
12:58 PM46 °FMostly cloudy.5 mph71%29.24 "HgN/A
11:58 AM46 °FMostly cloudy.5 mph66%29.23 "HgN/A
10:59 AM46 °FPartly sunny.3 mph71%29.20 "HgN/A
9:58 AM43 °FPassing clouds.6 mph81%29.24 "HgN/A
8:58 AM39 °FOvercast.No wind100%29.23 "HgN/A
7:58 AM37 °FBroken clouds.No wind100%29.22 "HgN/A
6:58 AM41 °FClear.2 mph87%29.19 "HgN/A
5:58 AM41 °FPassing clouds.6 mph87%29.19 "HgN/A
4:58 AM41 °FPassing clouds.6 mph93%29.20 "HgN/A
3:58 AM41 °FLight rain. Passing clouds.9 mph93%29.18 "HgN/A
2:58 AM41 °FLight rain. Partly cloudy.7 mph100%29.20 "HgN/A
2:04 AM39 °FOvercast.6 mph100%29.15 "HgN/A
1:58 AM39 °FOvercast.5 mph100%29.20 "HgN/A
12:58 AM39 °FFog.1 mph93%29.21 "Hg6 mi
11:59 PM
Sat, Feb 13
37 °FRain. Fog.1 mph100%29.17 "Hg2 mi
11:58 PM37 °FRain. Fog.1 mph100%29.22 "Hg2 mi
10:58 PM37 °FLight rain. Fog.3 mph100%29.23 "Hg3 mi
9:58 PM36 °FFog.7 mph100%29.25 "Hg4 mi
8:58 PM36 °FLight rain. Fog.6 mph100%29.27 "Hg3 mi
7:58 PM36 °FFog.6 mph100%29.27 "Hg5 mi
Weather by CustomWeather, © 2016

See weather overviewHow to use our weather pages